Location: Newark
(35.2672°N, 80.7344°W)
Time: 01:00:47
(UTC+00:00)

Vanguard 2 Rocket - Pass Details

Date: 20 January 2020
Orbit: 554 x 3327 km, 32.9° (Epoch: 20 February)

Event Time Altitude Azimuth Distance (km) Brightness Sun altitude
Rises 14:22:51 0° 272° (W) 3,767 9.6 18.4°
Reaches altitude 10° 14:25:00 10° 271° (W) 3,057 9.2 18.8°
Maximum altitude 14:32:47 75° 187° (S) 1,733 8.8 19.9°
Drops below altitude 10° 14:47:05 10° 105° (ESE) 5,329 11.9 21.9°
Sets 14:52:07 0° 104° (ESE) 6,704 12.2 22.6°
